| time (UTC) | temp C | wind direction | speed KPH | gust KPH | rain 1hr cm | rain 24hr cm | rain mn cm | humidity % | barometer mb |
| 20260508013007 | 10 | 280 | 0.0 | 3.2 | 0.00 | 0.00 | 0.00 | 68 | 1012.7 |
| 20260508012006 | 11 | 340 | 0.0 | 6.4 | 0.00 | 0.00 | 0.00 | 67 | 1012.5 |
| 20260508005003 | 11 | 318 | 0.0 | 6.4 | 0.00 | 0.00 | 0.00 | 65 | 1012.0 |
| 20260508004001 | 12 | 350 | 4.8 | 12.9 | 0.00 | 0.00 | 0.00 | 64 | 1011.9 |
| 20260508002000 | 12 | 287 | 3.2 | 11.3 | 0.00 | 0.00 | 0.00 | 63 | 1011.5 |
| 20260508001000 | 12 | 356 | 4.8 | 17.7 | 0.00 | 0.00 | 0.00 | 62 | 1011.2 |
| 20260508000000 | 13 | 6 | 8.0 | 16.1 | 0.00 | 0.00 | 0.00 | 61 | 1011.1 |
| 20260507234957 | 13 | 278 | 4.8 | 12.9 | 0.00 | 0.00 | 0.00 | 61 | 1010.9 |
| 20260507233955 | 13 | 359 | 3.2 | 12.9 | 0.00 | 0.00 | 0.00 | 60 | 1010.8 |
| 20260507232002 | 13 | 353 | 6.4 | 22.5 | 0.00 | 0.00 | 0.00 | 59 | 1010.6 |
| 20260507230954 | 14 | 266 | 6.4 | 19.3 | 0.00 | 0.00 | 0.00 | 58 | 1010.6 |
| 20260507223953 | 14 | 308 | 6.4 | 14.5 | 0.00 | 0.00 | 0.00 | 58 | 1010.3 |
| 20260507222953 | 14 | 304 | 4.8 | 16.1 | 0.00 | 0.00 | 0.00 | 58 | 1010.3 |
| 20260507221952 | 14 | 352 | 3.2 | 16.1 | 0.00 | 0.00 | 0.00 | 57 | 1010.3 |
| 20260507220951 | 15 | 285 | 4.8 | 12.9 | 0.00 | 0.00 | 0.00 | 56 | 1010.0 |
| 20260507214957 | 15 | 53 | 6.4 | 16.1 | 0.00 | 0.00 | 0.00 | 55 | 1010.0 |
| 20260507214006 | 15 | 7 | 6.4 | 24.1 | 0.00 | 0.00 | 0.00 | 53 | 1009.7 |
| 20260507212950 | 15 | 255 | 8.0 | 17.7 | 0.00 | 0.00 | 0.00 | 54 | 1009.7 |
| 20260507211003 | 16 | 271 | 8.0 | 19.3 | 0.00 | 0.00 | 0.00 | 53 | 1009.6 |
| 20260507210007 | 15 | 350 | 9.7 | 25.7 | 0.00 | 0.00 | 0.00 | 52 | 1009.6 |
| 20260507194955 | 15 | 338 | 8.0 | 24.1 | 0.00 | 0.00 | 0.00 | 57 | 1010.0 |
| 20260507192957 | 15 | 263 | 8.0 | 17.7 | 0.00 | 0.00 | 0.00 | 56 | 1010.3 |
| 20260507191006 | 15 | 277 | 9.7 | 30.6 | 0.00 | 0.00 | 0.00 | 55 | 1010.4 |
| 20260507185951 | 16 | 269 | 6.4 | 16.1 | 0.00 | 0.00 | 0.00 | 58 | 1010.3 |
| 20260507184942 | 15 | 302 | 9.7 | 20.9 | 0.00 | 0.00 | 0.00 | 59 | 1010.5 |
| 20260507183950 | 15 | 343 | 6.4 | 24.1 | 0.00 | 0.00 | 0.00 | 59 | 1010.6 |
| 20260507183000 | 14 | 294 | 6.4 | 20.9 | 0.00 | 0.00 | 0.00 | 62 | 1010.5 |
| 20260507181943 | 14 | 281 | 8.0 | 22.5 | 0.00 | 0.00 | 0.00 | 61 | 1010.6 |
| 20260507180954 | 13 | 236 | 9.7 | 20.9 | 0.00 | 0.00 | 0.00 | 60 | 1010.7 |
| 20260507175941 | 14 | 270 | 6.4 | 19.3 | 0.00 | 0.00 | 0.00 | 63 | 1010.7 |
| 20260507174955 | 13 | 288 | 4.8 | 20.9 | 0.00 | 0.00 | 0.00 | 63 | 1010.9 |
| 20260507173939 | 14 | 280 | 8.0 | 20.9 | 0.00 | 0.00 | 0.00 | 62 | 1011.0 |
| 20260507172951 | 13 | 274 | 6.4 | 16.1 | 0.00 | 0.00 | 0.00 | 65 | 1011.1 |
| 20260507171942 | 14 | 297 | 3.2 | 14.5 | 0.00 | 0.00 | 0.00 | 65 | 1011.3 |
| 20260507170938 | 14 | 274 | 8.0 | 16.1 | 0.00 | 0.00 | 0.00 | 65 | 1011.4 |
| 20260507165937 | 14 | 266 | 6.4 | 20.9 | 0.00 | 0.00 | 0.00 | 66 | 1011.4 |
| 20260507164943 | 15 | 276 | 6.4 | 16.1 | 0.00 | 0.00 | 0.00 | 65 | 1011.4 |
| 20260507164014 | 13 | 264 | 6.4 | 19.3 | 0.00 | 0.00 | 0.00 | 65 | 1011.5 |
| 20260507163939 | 13 | 264 | 6.4 | 19.3 | 0.00 | 0.00 | 0.00 | 65 | 1011.5 |
| 20260507162938 | 13 | 280 | 6.4 | 14.5 | 0.00 | 0.00 | 0.00 | 63 | 1011.7 |
| 20260507161938 | 13 | 260 | 6.4 | 17.7 | 0.00 | 0.00 | 0.00 | 64 | 1011.7 |
| 20260507160938 | 14 | 267 | 6.4 | 17.7 | 0.00 | 0.00 | 0.00 | 65 | 1011.7 |
| 20260507160000 | 13 | 295 | 6.4 | 16.1 | 0.00 | 0.00 | 0.00 | 65 | 1011.9 |
| 20260507150938 | 13 | 243 | 6.4 | 14.5 | 0.00 | 0.00 | 0.00 | 68 | 1012.5 |
| 20260507145933 | 13 | 280 | 6.4 | 16.1 | 0.00 | 0.00 | 0.00 | 69 | 1012.7 |
| 20260507144939 | 12 | 353 | 6.4 | 16.1 | 0.00 | 0.00 | 0.00 | 70 | 1012.7 |
| 20260507143934 | 12 | 295 | 6.4 | 11.3 | 0.00 | 0.00 | 0.00 | 69 | 1012.9 |
| 20260507142932 | 12 | 353 | 4.8 | 14.5 | 0.00 | 0.00 | 0.00 | 71 | 1013.0 |
| 20260507141941 | 12 | 280 | 4.8 | 11.3 | 0.00 | 0.00 | 0.00 | 74 | 1013.1 |
| 20260507141002 | 12 | 242 | 3.2 | 8.0 | 0.00 | 0.00 | 0.00 | 78 | 1013.3 |
| 20260507135936 | 11 | 277 | 3.2 | 9.7 | 0.00 | 0.00 | 0.00 | 78 | 1013.5 |
| 20260507135008 | 11 | 283 | 3.2 | 12.9 | 0.00 | 0.00 | 0.00 | 80 | 1013.5 |
| 20260507133935 | 11 | 291 | 1.6 | 6.4 | 0.00 | 0.00 | 0.00 | 83 | 1013.5 |
| 20260507131938 | 10 | 287 | 1.6 | 11.3 | 0.00 | 0.00 | 0.00 | 86 | 1013.8 |
| 20260507131004 | 10 | 217 | 1.6 | 4.8 | 0.00 | 0.00 | 0.00 | 89 | 1013.7 |
| 20260507130927 | 10 | 217 | 1.6 | 4.8 | 0.00 | 0.00 | 0.00 | 89 | 1013.7 |
| 20260507125926 | 9 | 212 | 3.2 | 8.0 | 0.00 | 0.00 | 0.00 | 93 | 1013.8 |
| 20260507124926 | 8 | 217 | 3.2 | 6.4 | 0.00 | 0.00 | 0.00 | 96 | 1013.9 |
| 20260507123945 | 8 | 212 | 3.2 | 4.8 | 0.00 | 0.00 | 0.00 | 98 | 1013.9 |
| 20260507122924 | 7 | 210 | 0.0 | 3.2 | 0.00 | 0.00 | 0.00 | 99 | 1013.9 |
| 20260507121923 | 7 | 221 | 1.6 | 4.8 | 0.00 | 0.00 | 0.00 | 100 | 1013.9 |
| 20260507115921 | 5 | 0 | 0.0 | 0.0 | 0.00 | 0.00 | 0.00 | 100 | 1013.9 |
| 20260507114921 | 5 | 0 | 0.0 | 0.0 | 0.00 | 0.00 | 0.00 | 100 | 1013.9 |
| 20260507113917 | 5 | 0 | 0.0 | 0.0 | 0.00 | 0.00 | 0.00 | 100 | 1013.8 |
| 20260507112917 | 4 | 0 | 0.0 | 0.0 | 0.00 | 0.00 | 0.00 | 100 | 1013.6 |
| 20260507111916 | 4 | 0 | 0.0 | 0.0 | 0.00 | 0.00 | 0.00 | 100 | 1013.5 |
| 20260507105916 | 3 | 0 | 0.0 | 0.0 | 0.00 | 0.00 | 0.00 | 100 | 1013.5 |
| 20260507104915 | 2 | 0 | 0.0 | 0.0 | 0.00 | 0.00 | 0.00 | 100 | 1013.4 |
| 20260507103915 | 3 | 0 | 0.0 | 0.0 | 0.00 | 0.00 | 0.00 | 100 | 1013.2 |
| 20260507100911 | 3 | 0 | 0.0 | 0.0 | 0.00 | 0.00 | 0.00 | 100 | 1013.1 |
| 20260507094944 | 3 | 0 | 0.0 | 0.0 | 0.00 | 0.00 | 0.00 | 100 | 1013.0 |
| 20260507094910 | 3 | 0 | 0.0 | 0.0 | 0.00 | 0.00 | 0.00 | 100 | 1013.0 |
| 20260507091907 | 3 | 0 | 0.0 | 0.0 | 0.00 | 0.00 | 0.00 | 100 | 1013.2 |
| 20260507090943 | 3 | 0 | 0.0 | 0.0 | 0.00 | 0.00 | 0.00 | 100 | 1013.2 |
| 20260507090905 | 3 | 0 | 0.0 | 0.0 | 0.00 | 0.00 | 0.00 | 100 | 1013.2 |
| 20260507085905 | 4 | 0 | 0.0 | 0.0 | 0.00 | 0.00 | 0.00 | 100 | 1013.2 |
| 20260507085004 | 4 | 0 | 0.0 | 0.0 | 0.00 | 0.00 | 0.00 | 100 | 1013.2 |
| 20260507084904 | 4 | 0 | 0.0 | 0.0 | 0.00 | 0.00 | 0.00 | 100 | 1013.2 |
| 20260507083904 | 4 | 0 | 0.0 | 0.0 | 0.00 | 0.00 | 0.00 | 100 | 1013.1 |
| 20260507082903 | 4 | 0 | 0.0 | 0.0 | 0.00 | 0.00 | 0.00 | 99 | 1013.2 |
| 20260507081903 | 5 | 0 | 0.0 | 0.0 | 0.00 | 0.00 | 0.00 | 99 | 1013.1 |
| 20260507073902 | 5 | 0 | 0.0 | 0.0 | 0.00 | 0.00 | 0.00 | 97 | 1013.2 |
| 20260507072900 | 5 | 0 | 0.0 | 0.0 | 0.00 | 0.00 | 0.00 | 97 | 1013.1 |
| 20260507071859 | 6 | 0 | 0.0 | 0.0 | 0.00 | 0.00 | 0.00 | 96 | 1013.2 |
| 20260507070859 | 6 | 0 | 0.0 | 0.0 | 0.00 | 0.00 | 0.00 | 95 | 1013.2 |
| 20260507064858 | 6 | 0 | 0.0 | 0.0 | 0.00 | 0.00 | 0.00 | 93 | 1013.4 |
| 20260507063858 | 7 | 0 | 0.0 | 0.0 | 0.00 | 0.00 | 0.00 | 91 | 1013.3 |
| 20260507062858 | 7 | 0 | 0.0 | 0.0 | 0.00 | 0.00 | 0.00 | 91 | 1013.3 |
| 20260507061855 | 8 | 0 | 0.0 | 0.0 | 0.00 | 0.00 | 0.00 | 91 | 1013.3 |
| 20260507055852 | 8 | 0 | 0.0 | 0.0 | 0.00 | 0.00 | 0.00 | 90 | 1013.5 |
| 20260507053852 | 8 | 0 | 0.0 | 0.0 | 0.00 | 0.00 | 0.00 | 89 | 1013.8 |
| 20260507052928 | 8 | 0 | 0.0 | 0.0 | 0.00 | 0.00 | 0.00 | 88 | 1013.9 |
| 20260507052851 | 8 | 0 | 0.0 | 0.0 | 0.00 | 0.00 | 0.00 | 88 | 1013.9 |
| 20260507051851 | 8 | 0 | 0.0 | 0.0 | 0.00 | 0.00 | 0.00 | 87 | 1014.0 |
| 20260507050924 | 8 | 0 | 0.0 | 0.0 | 0.00 | 0.00 | 0.00 | 86 | 1014.0 |
| 20260507050850 | 8 | 0 | 0.0 | 0.0 | 0.00 | 0.00 | 0.00 | 86 | 1014.0 |
| 20260507045850 | 8 | 0 | 0.0 | 0.0 | 0.00 | 0.00 | 0.00 | 86 | 1013.9 |
| 20260507044850 | 8 | 0 | 0.0 | 0.0 | 0.00 | 0.00 | 0.00 | 86 | 1013.8 |
| 20260507043849 | 9 | 0 | 0.0 | 0.0 | 0.00 | 0.00 | 0.00 | 85 | 1013.8 |
| 20260507042847 | 9 | 0 | 0.0 | 0.0 | 0.00 | 0.00 | 0.00 | 85 | 1013.9 |
| 20260507041849 | 9 | 0 | 0.0 | 0.0 | 0.00 | 0.00 | 0.00 | 86 | 1013.9 |
| 20260507040847 | 9 | 346 | 0.0 | 1.6 | 0.00 | 0.00 | 0.00 | 85 | 1013.7 |
| 20260507033845 | 10 | 0 | 0.0 | 0.0 | 0.00 | 0.00 | 1.19 | 84 | 1013.7 |
| 20260507032845 | 10 | 228 | 0.0 | 1.6 | 0.00 | 0.00 | 1.19 | 84 | 1013.6 |
| 20260507030844 | 10 | 356 | 0.0 | 3.2 | 0.00 | 0.00 | 1.19 | 83 | 1013.2 |
| 20260507025844 | 10 | 346 | 0.0 | 1.6 | 0.00 | 0.00 | 1.19 | 83 | 1013.3 |
| 20260507025005 | 10 | 0 | 0.0 | 0.0 | 0.00 | 0.00 | 1.19 | 82 | 1013.3 |
| 20260507024844 | 10 | 0 | 0.0 | 0.0 | 0.00 | 0.00 | 1.19 | 82 | 1013.3 |
| 20260507024003 | 10 | 332 | 0.0 | 0.0 | 0.00 | 0.00 | 1.19 | 82 | 1013.1 |
| 20260507022843 | 10 | 0 | 0.0 | 0.0 | 0.00 | 0.00 | 1.19 | 83 | 1013.3 |
| 20260507022012 | 10 | 0 | 0.0 | 0.0 | 0.00 | 0.00 | 1.19 | 83 | 1012.9 |
| 20260507021843 | 10 | 0 | 0.0 | 0.0 | 0.00 | 0.00 | 1.19 | 83 | 1012.9 |
| 20260507021011 | 10 | 0 | 0.0 | 0.0 | 0.00 | 0.00 | 1.19 | 82 | 1012.9 |
| 20260507020842 | 10 | 0 | 0.0 | 0.0 | 0.00 | 0.00 | 1.19 | 82 | 1012.9 |
| 20260507020003 | 10 | 0 | 0.0 | 0.0 | 0.00 | 0.00 | 1.19 | 81 | 1012.8 |
| 20260507015842 | 10 | 0 | 0.0 | 0.0 | 0.00 | 0.00 | 1.19 | 81 | 1012.8 |
| 20260507014841 | 10 | 0 | 0.0 | 0.0 | 0.00 | 0.00 | 1.19 | 81 | 1012.6 |
| 20260507013839 | 10 | 52 | 1.6 | 4.8 | 0.00 | 0.00 | 1.19 | 81 | 1012.3 |